Location: Newark
(48.8604°N, 2.3376°E)
Time: 17:13:21
(UTC+00:00)

XW-2C - Pass Details

Date: 08 December 2021
Orbit: 503 x 523 km, 97.5° (Epoch: 17 January)

Event Time Altitude Azimuth Distance (km) Brightness Sun altitude
Rises 16:34:09 0° 155° (SSE) 2,621 ? -6.5°
Reaches altitude 10° 16:36:15 10° 151° (SSE) 1,742 ? -6.8°
Maximum altitude 16:39:56 57° 73° (ENE) 619 ? -7.3°
Drops below altitude 10° 16:43:40 10° 355° (N) 1,768 ? -7.9°
Sets 16:45:49 0° 351° (N) 2,665 ? -8.2°
